EW5297 Weather Reports


Display with metric or nautical units.
time (UTC)temp
F
wind
direction
speed
MPH
gust
MPH
rain 1hr
in
rain 24hr
in
rain mn
in
humidity
%
barometer
mb
20260906054842 67 184 5.0 14.0 0.00 0.00 0.00 60 1014.8
20260906053337 68 173 6.0 11.0 0.00 0.00 0.00 58 1014.6
20260906051816 69 169 7.0 11.0 0.00 0.00 0.00 56 1014.3
20260906050313 70 180 5.0 15.0 0.00 0.00 0.00 55 1014.0
20260906044813 71 160 5.0 16.0 0.00 0.00 0.00 57 1013.8
20260906043332 73 142 7.0 15.0 0.00 0.00 0.00 50 1013.3
20260906041826 74 160 6.0 17.0 0.00 0.00 0.00 49 1012.9
20260906040326 75 120 9.0 14.0 0.00 0.00 0.00 46 1012.7
20260906034822 77 149 4.0 10.0 0.00 0.00 0.00 48 1012.3
20260906033316 77 80 3.0 15.0 0.00 0.00 0.00 50 1012.1
20260906031836 78 138 5.0 14.0 0.00 0.00 0.00 50 1011.9
20260906030313 82 186 4.0 14.0 0.00 0.00 0.00 27 1011.9
20260906024812 83 102 1.0 12.0 0.00 0.00 0.00 24 1012.0
20260906023330 83 5 2.0 8.0 0.00 0.00 0.00 25 1012.1
20260906021825 83 156 4.0 12.0 0.00 0.00 0.00 23 1012.3
20260906020325 82 139 3.0 11.0 0.00 0.00 0.00 28 1012.2
20260906014822 83 144 4.0 7.0 0.00 0.00 0.00 26 1012.3
20260906013320 84 130 3.0 7.0 0.00 0.00 0.00 25 1012.3
20260906011824 84 291 3.0 7.0 0.00 0.00 0.00 20 1012.3
20260906010322 83 299 3.0 11.0 0.00 0.00 0.00 31 -110.7
20260906004846 82 118 3.0 7.0 0.00 0.00 0.00 50 1012.7
20260906003323 80 340 1.0 3.0 0.00 0.00 0.00 48 1012.9
20260906001820 79 174 2.0 3.0 0.00 0.00 0.00 48 1013.0
20260906000322 78 155 0.0 2.0 0.00 0.00 0.00 53 1013.0
20260905234819 77 184 1.0 2.0 0.00 0.00 0.00 51 1013.0
20260905233321 75 184 1.0 2.0 0.00 0.00 0.00 50 1013.1
20260905231819 73 178 1.0 2.0 0.00 0.00 0.00 58 1013.1
20260905230315 72 154 1.0 2.0 0.00 0.00 0.00 65 1013.0
20260905224816 70 191 0.0 2.0 0.00 0.00 0.00 74 1012.8
20260905223315 67 159 4.0 5.0 0.00 0.00 0.00 75 1013.0
20260905221815 65 154 2.0 3.0 0.00 0.00 0.00 81 1012.9
20260905220321 62 322 2.0 3.0 0.00 0.00 0.00 87 1012.7
20260905214822 61 315 1.0 3.0 0.00 0.00 0.00 88 1012.6
20260905213325 59 344 2.0 4.0 0.00 0.00 0.00 89 1012.4
20260905211825 58 335 2.0 5.0 0.00 0.00 0.00 89 1012.2
20260905210321 57 323 2.0 3.0 0.00 0.00 0.00 89 1012.2
20260905204822 56 317 1.0 2.0 0.00 0.00 0.00 89 1012.1
20260905203318 56 317 1.0 2.0 0.00 0.00 0.00 89 1011.8
20260905201819 56 317 1.0 2.0 0.00 0.00 0.00 88 1011.7
20260905200317 56 315 1.0 2.0 0.00 0.00 0.00 87 1011.7
20260905194814 57 309 2.0 3.0 0.00 0.00 0.00 87 1011.5
20260905193315 57 311 0.0 0.0 0.00 0.00 0.00 87 1011.2
20260905191813 56 313 0.0 1.0 0.00 0.00 0.00 88 1010.7
20260905190329 57 310 1.0 2.0 0.00 0.00 0.00 88 1010.8
20260905184810 57 311 1.0 2.0 0.00 0.00 0.00 87 453.3
20260905183327 57 323 2.0 3.0 0.00 0.00 0.00 87 1010.9
20260905181849 57 298 1.0 3.0 0.00 0.00 0.00 86 960.0
20260905180326 58 313 1.0 2.0 0.00 0.00 0.00 85 1010.9
20260905174844 58 322 1.0 3.0 0.00 0.00 0.00 86 579.0
20260905173325 59 315 0.0 2.0 0.00 0.00 0.00 85 1041.1
20260905171821 58 319 1.0 3.0 0.00 0.00 0.00 85 507.2
20260905170317 59 313 1.0 2.0 0.00 0.00 0.00 85
20260905164819 58 318 1.0 3.0 0.00 0.00 0.00 85 1011.2
20260905163317 59 316 1.0 3.0 0.00 0.00 0.00 85 1081.6
20260905161816 59 315 1.0 2.0 0.00 0.00 0.00 84 1011.2
20260905160314 60 317 2.0 2.0 0.00 0.00 0.00 82 771.8
20260905154811 60 313 1.0 2.0 0.00 0.00 0.00 81 1011.3
20260905153311 61 313 1.0 2.0 0.00 0.00 0.00 81 1011.4
20260905151850 62 312 1.0 2.0 0.00 0.00 0.00 78 963.6
20260905150325 62 319 1.0 2.0 0.00 0.00 0.00 76 323.4
20260905144826 63 319 1.0 2.0 0.00 0.00 0.00 74 508.1
20260905141813 64 321 3.0 5.0 0.00 0.00 0.00 71 1081.7
20260905140350 63 339 2.0 3.0 0.00 0.00 0.00 72 509.6
20260905134828 65 316 2.0 3.0 0.00 0.00 0.00 73 1011.9
20260905133329 65 329 2.0 6.0 0.00 0.00 0.00 73 1012.1
20260905131826 66 321 1.0 4.0 0.00 0.00 0.00 71 1012.0
20260905130324 66 340 1.0 2.0 0.00 0.00 0.00 70 1011.8
20260905124824 67 340 0.0 4.0 0.00 0.00 0.00 68 1011.7
20260905121827 69 331 1.0 5.0 0.00 0.00 0.00 67 896.9
20260905120329 66 323 3.0 9.0 0.00 0.00 0.00 76 1013.1
20260905114827 63 310 2.0 3.0 0.00 0.00 0.00 82 509.7
20260905113329 64 319 2.0 8.0 0.00 0.00 0.00 81 958.5
20260905111827 64 320 3.0 5.0 0.00 0.00 0.00 80 454.4
20260905110346 64 311 3.0 4.0 0.00 0.00 0.00 80 1012.0
20260905104826 64 325 2.0 4.0 0.00 0.00 0.00 80 1012.3
20260905103323 64 312 2.0 4.0 0.00 0.00 0.00 80 1012.5
20260905101823 64 320 2.0 5.0 0.00 0.00 0.00 80 1083.5
20260905100345 65 309 2.0 4.0 0.00 0.00 0.00 81 1012.8
20260905094823 65 304 2.0 5.0 0.00 0.00 0.00 81 1012.7
20260905093326 65 313 2.0 5.0 0.00 0.00 0.00 82 960.1
20260905091825 64 304 2.0 3.0 0.00 0.00 0.00 83 1012.6
20260905090321 65 311 1.0 4.0 0.00 0.00 0.00 82 518.7
20260905084843 65 316 1.0 2.0 0.00 0.00 0.00 83 1012.6
20260905083318 65 316 0.0 0.0 0.00 0.00 0.00 82 1012.5
20260905080345 67 316 0.0 2.0 0.00 0.00 0.00 80 1012.3
20260905074822 68 316 0.0 1.0 0.00 0.00 0.00 78 1012.3
20260905073344 69 316 1.0 1.0 0.00 0.00 0.00 76 1012.0
20260905071820 70 316 1.0 2.0 0.00 0.00 0.00 73 1011.8
20260905070340 71 316 1.0 2.0 0.00 0.00 0.00 70 1011.7
20260905064838 73 316 1.0 2.0 0.00 0.00 0.00 68 511.1
20260905063316 75 316 0.0 2.0 0.00 0.00 0.00 67 1011.4
20260905061814 76 316 1.0 2.0 0.00 0.00 0.00 64 1011.6